Simultaneous Nadir Overpasses (SNOs) Predictions

Prediction of SNOs between NOAA-19 and TERRA Satellite Orbit:

Table of predicted SNOs for the next 14.0 days since TLE Epoch: 6/15/2019
Index Date (NOAA-19) Time (NOAA-19) Lat,Lon (NOAA-19) SZA (NOAA-19 ) Date (TERRA) Time (TERRA) Lat,Lon (TERRA) SZA (TERRA ) Distance(km) Time Diff (sec)
1 06/16/2019 00:19:17 78.46,-162.68 56.00 06/16/2019 00:19:10 78.46,-162.57 56.01 2.44 7
2 06/18/2019 05:52:47 -78.48, -66.08 124.07 06/18/2019 05:52:54 -78.45, -66.07 124.09 3.34 7
3 06/18/2019 06:43:31 78.04, 103.95 55.78 06/18/2019 06:42:28 78.10, 99.85 55.45 94.46 63
4 06/20/2019 11:26:08 78.49, 30.61 55.90 06/20/2019 11:26:36 78.46, 30.58 55.89 2.77 28
5 06/20/2019 12:17:12 -78.45,-161.90 124.11 06/20/2019 12:16:04 -78.43,-161.95 124.16 2.19 68
6 06/22/2019 16:59:38 -78.49, 127.32 124.10 06/22/2019 17:00:19 -78.49, 127.31 124.09 0.75 41
7 06/22/2019 17:50:33 78.47, -65.29 55.89 06/22/2019 17:49:46 78.44, -65.33 55.85 3.32 47
8 06/24/2019 22:32:59 78.52,-136.13 55.94 06/24/2019 22:34:01 78.50,-136.09 55.95 2.24 62
9 06/24/2019 23:24:03 -78.47, 31.44 124.08 06/24/2019 23:23:29 -78.47, 31.41 124.09 1.16 34
10 06/27/2019 04:06:32 -78.62, -40.10 123.96 06/27/2019 04:07:45 -78.49, -39.57 124.01 18.22 73




NCC Satellite Simultaneous Nadir Overpasses (SNOs) Prediction Service
